sat.trackr.live / text

‹ back to catalog

2025-108E

NORAD 64091 · 2025-108E

PAYLOAD ACTIVE UNKNOWN

§ Identity

Operator
Country
PRC
Launch date
2025-05-21
Launch site
JSC
Launch vehicle
Mass (kg)
RCS (m²)

External: N2YO · Heavens-Above · Gunter

§ Orbital elements

Epoch: 2026-05-25T04:09:58.473216Z

Period
94.50 min
Inclination
97.4672°
Eccentricity
0.0013558
Mean motion
15.23748654 rev/d
Perigee alt
485.2 km
Apogee alt
503.9 km
Semi-major
6,872.7 km
B*
5.9528e-4
RAAN
222.1268°
Arg perigee
85.7003°
Mean anomaly
274.5783°
Rev number
5,594

§ Raw data

2025-108E1 64091U 25108E   26145.17359344  .00014290  00000+0  59528-3 0  99972 64091  97.4672 222.1268 0013558  85.7003 274.5783 15.23748654 55949

JSON: /api/v1/satellites/64091 · /tle

For live sub-satellite position, see the globe view (requires WebGL).

§ Visibility from observer

Set your observer location to see the next 7 days of passes ≥ 10°. The values pass through the URL so the page stays shareable.

No JS? Fill the form by hand. The geolocation button needs JavaScript.